"Pseudo-MPEC" for ZTF09oc

Created 2020 Jan 19 11:07:37 UT using Find_Orb

Click here for an explanation of pseudo-MPECs

 
 Astrometry: 
     ZTF09oc  C2020 01 14.21478007 46 29.15 +45 26 33.7    ~1EBM 17.95RUNEOCPI41
     ZTF09oc  C2020 01 14.21512707 46 32.45 +45 26 28.0    ~1EBM 17.95RUNEOCPI41
     ZTF09oc  C2020 01 14.30472207 59 34.40 +45 01 00.6    ~1EBM 18.01RUNEOCPI41
     ZTF09oc  C2020 01 14.30506907 59 37.05 +45 00 54.1    ~1EBM 18.01RUNEOCPI41

Station data:
(I41) Palomar Mountain--ZTF  (N33.357340 W116.859780)  US/California. 1.2-m
   f/2.44 Oschin Schmidt + CCD.

Orbital elements:  ZTF09oc
   Perigee 2020 Jan 13.373230 +/- 22.3 TT =  8:57:27 (JD 2458861.873230)
Epoch 2020 Jan 14.0 TT = JDT 2458862.5                        AutoNEOCP
q211816.412 +/- 1.04e+7             (J2000 equator)
H   30.2  G 0.15                    Peri.   39.81144 +/- 60
                                    Node    11.88573 +/- 70
e  10.9140856 +/- 0.235             Incl.   46.25329 +/- 3.5
From 4 observations 2020 Jan. 14 (2.2 hr); mean residual 0".42
Residuals in arcseconds: 
200114 I41  .34+  .55+    200114 I41  .43+  .33-    
200114 I41  .35-  .55-    200114 I41  .43-  .33+    

Ephemerides (geocentric):
Date (UTC) HH   RA              Dec         delta   r     elong  mag " sig PA
---- -- -- --  -------------   -----------  ------ ------ -----  --- ---- ---
2020 01 19 11  10 06 14.358   +33 55 18.50  .01556 0.9973 149.6 22.5  40d  40
2020 01 19 12  10 06 22.804   +33 54 01.95  .01566 0.9974 149.6 22.5  40d  40
2020 01 19 13  10 06 31.120   +33 52 46.36  .01577 0.9975 149.6 22.5  40d  41
2020 01 19 14  10 06 39.309   +33 51 31.70  .01587 0.9976 149.6 22.5  40d  41
2020 01 19 15  10 06 47.372   +33 50 17.96  .01598 0.9977 149.6 22.5  40d  41
2020 01 19 16  10 06 55.313   +33 49 05.11  .01608 0.9978 149.6 22.6  40d  41
2020 01 19 17  10 07 03.133   +33 47 53.14  .01619 0.9979 149.6 22.6  40d  41
2020 01 19 18  10 07 10.836   +33 46 42.04  .01629 0.9980 149.6 22.6  40d  41
2020 01 19 19  10 07 18.423   +33 45 31.78  .01640 0.9981 149.6 22.6  40d  41
2020 01 19 20  10 07 25.897   +33 44 22.35  .01650 0.9982 149.7 22.6  40d  41
2020 01 19 21  10 07 33.259   +33 43 13.74  .01661 0.9983 149.7 22.6  39d  41
2020 01 19 22  10 07 40.512   +33 42 05.93  .01671 0.9984 149.7 22.6  39d  41
2020 01 19 23  10 07 47.658   +33 40 58.91  .01682 0.9985 149.7 22.7  39d  41
2020 01 20 00  10 07 54.699   +33 39 52.66  .01692 0.9986 149.7 22.7  39d  41
2020 01 20 01  10 08 01.637   +33 38 47.17  .01703 0.9986 149.7 22.7  39d  42
2020 01 20 02  10 08 08.473   +33 37 42.42  .01713 0.9987 149.7 22.7  39d  42
2020 01 20 03  10 08 15.210   +33 36 38.40  .01724 0.9988 149.7 22.7  39d  42
2020 01 20 04  10 08 21.850   +33 35 35.10  .01734 0.9989 149.8 22.7  39d  42
2020 01 20 05  10 08 28.393   +33 34 32.51  .01745 0.9990 149.8 22.7  39d  42
2020 01 20 06  10 08 34.842   +33 33 30.61  .01755 0.9991 149.8 22.7  39d  42
2020 01 20 07  10 08 41.199   +33 32 29.39  .01766 0.9992 149.8 22.8  39d  42
2020 01 20 08  10 08 47.465   +33 31 28.84  .01776 0.9993 149.8 22.8  39d  42
2020 01 20 09  10 08 53.641   +33 30 28.95  .01787 0.9994 149.8 22.8  39d  42
2020 01 20 10  10 08 59.730   +33 29 29.70  .01797 0.9995 149.8 22.8  39d  42
2020 01 20 11  10 09 05.732   +33 28 31.09  .01808 0.9996 149.9 22.8  39d  42
2020 01 20 12  10 09 11.650   +33 27 33.10  .01818 0.9997 149.9 22.8  39d  42
2020 01 20 13  10 09 17.485   +33 26 35.73  .01829 0.9998 149.9 22.8  39d  42
2020 01 20 14  10 09 23.237   +33 25 38.96  .01839 0.9999 149.9 22.8  39d  42
2020 01 20 15  10 09 28.909   +33 24 42.78  .01850 1.0000 149.9 22.9  39d  42
2020 01 20 16  10 09 34.502   +33 23 47.18  .01860 1.0001 149.9 22.9  39d  42
2020 01 20 17  10 09 40.017   +33 22 52.16  .01871 1.0002 150.0 22.9  39d  42
2020 01 20 18  10 09 45.456   +33 21 57.70  .01881 1.0003 150.0 22.9  39d  42
2020 01 20 19  10 09 50.819   +33 21 03.79  .01892 1.0004 150.0 22.9  39d  42
2020 01 20 20  10 09 56.108   +33 20 10.43  .01902 1.0005 150.0 22.9  39d  42
2020 01 20 21  10 10 01.325   +33 19 17.60  .01913 1.0006 150.0 22.9  40d  42
2020 01 20 22  10 10 06.470   +33 18 25.31  .01923 1.0007 150.0 22.9  41d  42
2020 01 20 23  10 10 11.544   +33 17 33.53  .01934 1.0008 150.1 23.0  42d  32
2020 01 21 00  10 10 16.549   +33 16 42.26  .01944 1.0009 150.1 23.0  42d  35
2020 01 21 01  10 10 21.485   +33 15 51.49  .01955 1.0010 150.1 23.0  42d  37
2020 01 21 02  10 10 26.355   +33 15 01.22  .01965 1.0011 150.1 23.0  42d  38
2020 01 21 03  10 10 31.158   +33 14 11.43  .01976 1.0012 150.1 23.0  41d  38
2020 01 21 04  10 10 35.896   +33 13 22.12  .01986 1.0013 150.2 23.0  41d  39
2020 01 21 05  10 10 40.570   +33 12 33.28  .01997 1.0014 150.2 23.0  41d  39
2020 01 21 06  10 10 45.181   +33 11 44.91  .02007 1.0015 150.2 23.0  41d  39
2020 01 21 07  10 10 49.730   +33 10 56.99  .02018 1.0016 150.2 23.0  41d  40
2020 01 21 08  10 10 54.218   +33 10 09.51  .02029 1.0017 150.2 23.1  41d  40
2020 01 21 09  10 10 58.645   +33 09 22.49  .02039 1.0018 150.3 23.1  41d  40
2020 01 21 10  10 11 03.013   +33 08 35.89  .02050 1.0019 150.3 23.1  41d  40